Location: Cactus School
(34.5700°N, 118.0931°W)
Time: 06:09:36
(UTC-08:00)

ISS - Pass Details

Date: 16 November 2017
Orbit: 402 x 407 km, 51.6° (Epoch: 21 November)

Event Time Altitude Azimuth Distance (km) Brightness Sun altitude
Exits shadow 04:21:33 13° 38° (NE) 1,309 -0.9 -25.8°
Drops below altitude 10° 04:22:36 10° 57° (ENE) 1,451 -0.4 -25.6°
Sets 04:25:35 0° 87° (E) 2,307 1.3 -25.0°
